{"data":{"norad_id":63983,"epoch":"2026-05-25T03:48:51.539040Z","epoch_age_seconds":51552,"freshness":"FRESH","line1":"1 63983U 25100B   26145.15892985  .00026244  00000+0  71675-3 0  9998","line2":"2 63983  97.3638 222.1409 0008786  27.7776 332.3936 15.37349719 57372","mean_motion":15.37349719,"eccentricity":0.0008786,"inclination_deg":97.3638,"raan_deg":222.1409,"arg_perigee_deg":27.7776,"mean_anomaly_deg":332.3936,"bstar":0.00071675,"rev_number":5737,"period_min":93.667692015885,"perigee_km":447.94740303012,"apogee_km":459.95274643785,"semimajor_km":6832.087074734,"source":"CELESTRAK","updated_at":"2026-05-25T13:38:04.127179Z"}}